Terug naar catalogus

STARLINK-35820

ActiefCommunicatieVLEO
NORAD 66597·PAYLOAD·🇺🇸 United States

Gelanceerd Nov 22, 2025 vanaf Cape Canaveral Space Force Station

Loading…

Volgende Passages (komende 24 uur)

TLE

VersSource: CelesTrak SupGP

Epoch: Sep 15, 2026, 04:10 UTC

1 66597C 25270K   26258.17409722 -.00060827  00000+0 -22047-2 0  2583
2 66597  43.0014  66.1690 0001481 271.3058 100.2909 15.27584911    10

Volg STARLINK-35820 in realtime met AllMySat

Download on the App Store